, AK

(GMT )
Anchorage

Weather History for PANC - August, 2013

Change the Weather History Date:

Thursday, August 22, 2013

  Actual Average Record
Temperature  
Mean Temperature 53 °F 56 °F  
Max Temperature 55 °F 63 °F 73 °F (1978)
Min Temperature 50 °F 49 °F 37 °F (1954)
Degree Days  
Heating Degree Days 12    
Month to date heating degree days 151  
Since 1 June heating degree days 446  
Since 1 July heating degree days 262  
Cooling Degree Days 0    
Month to date cooling degree days 0  
Year to date cooling degree days 21  
Since 1 June cooling degree days 21  
Growing Degree Days 4 (Base 50)    
Moisture  
Dew Point 51 °F    
Average Humidity 91    
Maximum Humidity 96    
Minimum Humidity 86    
Precipitation  
Precipitation 0.38 in 0.12 in 0.60 in (1953)
Month to date precipitation 4.51 2.21  
Year to date precipitation 12.45 8.25  
Snow  
Snow 0.00 in 0.00 in 0.00 in ()
Month to date snowfall 0.0 0.0  
Since 1 June snowfall 0.0 0.0  
Since 1 July snowfall 0.0 0.0  
Snow Depth 0.00 in    
Sea Level Pressure  
Sea Level Pressure 29.73 in    
Wind  
Wind Speed 2 mph (ENE)    
Max Wind Speed 5 mph    
Max Gust Speed 23 mph    
Visibility 8 miles    
Events Rain    
T = Trace of Precipitation, MM = Missing Value Source: NWS Daily Summary

Daily Weather History Graph

Daily Weather History Graph

Search for Another Location

Airport or City:

Trip Planner

Search our weather history database for the weather conditions in past years. The results will help you decide how hot, cold, wet, or windy it might be!

Date:

Astronomy

Aug. 22, 2013 Rise Set
Actual Time 6:27 AM AKDT 9:36 PM AKDT
Civil Twilight 5:36 AM AKDT 10:26 PM AKDT
Nautical Twilight 4:25 AM AKDT 11:36 PM AKDT
Astronomical Twilight 2:35 AM AKDT 1:30 AM AKDT
Moon 9:26 PM AKDT (8/22) 9:18 AM AKDT (8/22)
Length of Visible Light 16h 49m
Length of Day
15h 08m
Waning Gibbous, 96% of the Moon is Illuminated
Aug 22
Waning Gibbous
Aug 28
Last Quarter
Sep 5
New
Sep 12
First Quarter
Sep 19
Full

Hourly Weather History & Observations

Time (AKDT) Temp. Dew Point Humidity Pressure Visibility Wind Dir Wind Speed Gust Speed Precip Events Conditions
12:53 AM 53.1 °F 51.1 °F 93% 29.76 in 10.0 mi Calm Calm - 0.03 in Rain Light Rain
1:53 AM 53.1 °F 50.0 °F 89% 29.75 in 10.0 mi Calm Calm - 0.01 in Rain Light Rain
2:26 AM 53.6 °F 50.0 °F 88% 29.75 in 10.0 mi Calm Calm - 0.00 in Rain Light Rain
2:53 AM 53.1 °F 50.0 °F 89% 29.75 in 10.0 mi East 3.5 mph - 0.01 in Rain Light Rain
3:53 AM 52.0 °F 48.9 °F 89% 29.74 in 10.0 mi Calm Calm - 0.01 in Rain Light Rain
4:53 AM 52.0 °F 50.0 °F 93% 29.75 in 10.0 mi Calm Calm - 0.02 in Rain Rain
5:53 AM 52.0 °F 48.9 °F 89% 29.75 in 10.0 mi Calm Calm - 0.06 in Rain Light Rain
6:53 AM 52.0 °F 50.0 °F 93% 29.74 in 10.0 mi Calm Calm - 0.05 in Rain Light Rain
7:53 AM 53.1 °F 50.0 °F 89% 29.74 in 10.0 mi Calm Calm - 0.00 in   Overcast
8:53 AM 54.0 °F 50.0 °F 86% 29.74 in 10.0 mi Calm Calm - 0.00 in Rain Light Rain
9:53 AM 53.1 °F 50.0 °F 89% 29.74 in 5.0 mi ENE 4.6 mph - 0.08 in Rain Light Rain
10:53 AM 54.0 °F 51.1 °F 90% 29.75 in 5.0 mi NE 3.5 mph - 0.05 in Rain Light Rain
11:53 AM 55.0 °F 52.0 °F 89% 29.75 in 3.0 mi NE 4.6 mph - 0.03 in Rain Light Rain
12:53 PM 55.0 °F 52.0 °F 89% 29.75 in 3.0 mi NE 3.5 mph - 0.05 in Rain Light Rain
1:53 PM 55.0 °F 51.1 °F 86% 29.75 in 6.0 mi NE 3.5 mph - 0.01 in Rain Light Rain
2:48 PM 53.6 °F 51.8 °F 94% 29.74 in 6.0 mi ENE 5.8 mph - 0.00 in Rain Light Rain
2:53 PM 54.0 °F 51.1 °F 90% 29.75 in 6.0 mi ENE 5.8 mph - 0.00 in Rain Light Rain
3:53 PM 55.0 °F 51.1 °F 86% 29.74 in 10.0 mi Calm Calm - 0.00 in   Overcast
4:53 PM 55.9 °F 52.0 °F 87% 29.73 in 10.0 mi North 3.5 mph - 0.00 in Rain Light Rain
5:53 PM 55.9 °F 52.0 °F 87% 29.72 in 10.0 mi NNW 3.5 mph - 0.00 in Rain Light Rain
6:53 PM 55.0 °F 52.0 °F 89% 29.71 in 5.0 mi ESE 3.5 mph - 0.02 in Rain Light Rain
7:53 PM 55.0 °F 51.1 °F 86% 29.71 in 5.0 mi Variable 5.8 mph - 0.01 in Rain Light Rain
8:53 PM 55.0 °F 50.0 °F 83% 29.71 in 10.0 mi SSE 9.2 mph - 0.00 in Rain Light Rain
9:53 PM 55.0 °F 48.9 °F 80% 29.70 in 10.0 mi SSE 15.0 mph 23.0 mph 0.01 in Rain Light Rain
10:53 PM 55.0 °F 50.0 °F 83% 29.70 in 10.0 mi SSE 11.5 mph 21.9 mph 0.00 in Rain Light Rain
11:53 PM 55.0 °F 50.0 °F 83% 29.70 in 10.0 mi SSE 13.8 mph 21.9 mph 0.01 in Rain Light Rain